• In India
  • List of Countries
  • For 7 days
  • Water Temperature
  • Satellite Maps
  • Weather Map
  • Weather Widgets
  • user-avatar
    Login

    Hourly Weather Kurytyba

    Today, 22 January, Monday

    Time Temperature Precipitation Wind Pressure Humidity
    00:00 +21°C° 1.1 mm 1 mps 680 mmHg 98%
    01:00 +18°C° 0.1 mm 0 mps 680 mmHg 98%
    02:00 +18°C° 0.1 mm 0 mps 680 mmHg 98%
    03:00 +18°C° 0.1 mm 0 mps 679 mmHg 98%
    04:00 +18°C° 0 mm 0 mps 679 mmHg 98%
    05:00 +18°C° 0 mm 0 mps 679 mmHg 98%
    06:00 +20°C° 0 mm 1 mps 679 mmHg 98%
    07:00 +21°C° 0 mm 1 mps 680 mmHg 92%
    08:00 +23°C° 0 mm 1 mps 680 mmHg 85%
    09:00 +25°C° 0 mm 1 mps 681 mmHg 74%
    10:00 +28°C° 0.1 mm 1 mps 681 mmHg 63%
    11:00 +30°C° 0.1 mm 2 mps 681 mmHg 53%
    12:00 +32°C° 0.1 mm 2 mps 681 mmHg 43%
    13:00 +31°C° 0.1 mm 2 mps 680 mmHg 46%
    14:00 +31°C° 0.1 mm 2 mps 680 mmHg 49%
    15:00 +30°C° 0.1 mm 2 mps 679 mmHg 52%
    16:00 +29°C° 1.1 mm 1 mps 679 mmHg 61%
    17:00 +27°C° 1.1 mm 1 mps 679 mmHg 71%
    18:00 +26°C° 1.1 mm 1 mps 679 mmHg 81%
    19:00 +24°C° 1.8 mm 1 mps 679 mmHg 85%
    20:00 +23°C° 1.8 mm 1 mps 679 mmHg 89%
    21:00 +22°C° 1.8 mm 1 mps 679 mmHg 94%
    22:00 +21°C° 0 mm 1 mps 679 mmHg 94%
    23:00 +19°C° 0 mm 0 mps 679 mmHg 95%

    Tomorrow, 23 January, Tuesday

    Time Temperature Precipitation Wind Pressure Humidity
    00:00 +19°C° 0 mm 0 mps 680 mmHg 95%
    01:00 +19°C° 0 mm 0 mps 679 mmHg 96%
    02:00 +19°C° 0 mm 0 mps 679 mmHg 97%
    03:00 +18°C° 0 mm 0 mps 679 mmHg 97%
    04:00 +18°C° 0 mm 0 mps 679 mmHg 97%
    05:00 +20°C° 0 mm 1 mps 679 mmHg 97%
    06:00 +20°C° 0 mm 1 mps 679 mmHg 97%
    07:00 +22°C° 0 mm 1 mps 679 mmHg 87%
    08:00 +24°C° 0 mm 1 mps 680 mmHg 77%
    09:00 +26°C° 0 mm 2 mps 680 mmHg 68%
    10:00 +28°C° 0 mm 2 mps 680 mmHg 60%
    11:00 +30°C° 0 mm 2 mps 680 mmHg 53%
    12:00 +32°C° 0 mm 2 mps 680 mmHg 45%
    13:00 +32°C° 0.1 mm 2 mps 680 mmHg 45%
    14:00 +34°C° 0.1 mm 2 mps 679 mmHg 44%
    15:00 +34°C° 0.1 mm 2 mps 679 mmHg 44%
    16:00 +31°C° 0.2 mm 2 mps 679 mmHg 52%
    17:00 +30°C° 0.2 mm 1 mps 679 mmHg 59%
    18:00 +28°C° 0.2 mm 1 mps 679 mmHg 67%
    19:00 +27°C° 0.5 mm 1 mps 679 mmHg 74%
    20:00 +25°C° 0.5 mm 1 mps 679 mmHg 81%
    21:00 +23°C° 0.5 mm 1 mps 680 mmHg 88%
    22:00 +23°C° 0 mm 1 mps 680 mmHg 90%
    23:00 +22°C° 0 mm 1 mps 680 mmHg 91%

    Day after tomorrow, 24 January, Wednesday

    Time Temperature Precipitation Wind Pressure Humidity
    00:00 +22°C° 0 mm 1 mps 679 mmHg 93%
    01:00 +22°C° 0 mm 1 mps 679 mmHg 94%
    02:00 +22°C° 0 mm 1 mps 679 mmHg 94%
    03:00 +21°C° 0 mm 1 mps 678 mmHg 95%
    04:00 +21°C° 0 mm 1 mps 679 mmHg 96%
    05:00 +21°C° 0 mm 1 mps 679 mmHg 96%
    06:00 +20°C° 0 mm 1 mps 679 mmHg 97%
    07:00 +23°C° 0 mm 1 mps 679 mmHg 87%
    08:00 +25°C° 0 mm 1 mps 680 mmHg 76%
    09:00 +28°C° 0 mm 1 mps 681 mmHg 66%
    10:00 +29°C° 0.1 mm 1 mps 681 mmHg 59%
    11:00 +31°C° 0.1 mm 1 mps 681 mmHg 52%
    12:00 +33°C° 0.1 mm 1 mps 681 mmHg 45%
    13:00 +32°C° 0 mm 1 mps 680 mmHg 46%
    14:00 +32°C° 0 mm 1 mps 680 mmHg 48%
    15:00 +32°C° 0 mm 1 mps 679 mmHg 50%
    16:00 +30°C° 0.4 mm 1 mps 679 mmHg 57%
    17:00 +29°C° 0.4 mm 1 mps 679 mmHg 64%
    18:00 +28°C° 0.4 mm 1 mps 679 mmHg 71%
    19:00 +26°C° 2.4 mm 1 mps 679 mmHg 77%
    20:00 +25°C° 2.4 mm 1 mps 680 mmHg 83%
    21:00 +23°C° 2.4 mm 2 mps 680 mmHg 89%
    22:00 +23°C° 1.6 mm 1 mps 680 mmHg 90%
    23:00 +22°C° 1.6 mm 1 mps 680 mmHg 91%

    25 January, Thursday

    Time Temperature Precipitation Wind Pressure Humidity
    00:00 +22°C° 1.6 mm 1 mps 680 mmHg 92%
    01:00 +22°C° 0 mm 1 mps 679 mmHg 93%
    02:00 +21°C° 0 mm 1 mps 679 mmHg 94%
    03:00 +19°C° 0 mm 0 mps 678 mmHg 95%
    04:00 +19°C° 0 mm 0 mps 678 mmHg 95%
    05:00 +19°C° 0 mm 0 mps 678 mmHg 96%
    06:00 +18°C° 0 mm 0 mps 678 mmHg 97%
    07:00 +20°C° 0.1 mm 0 mps 679 mmHg 88%
    08:00 +24°C° 0.1 mm 1 mps 680 mmHg 79%
    09:00 +26°C° 0.1 mm 1 mps 681 mmHg 70%
    10:00 +27°C° 0.9 mm 1 mps 680 mmHg 73%
    11:00 +27°C° 0.9 mm 1 mps 680 mmHg 75%
    12:00 +28°C° 0.9 mm 1 mps 680 mmHg 77%
    13:00 +27°C° 1.6 mm 1 mps 680 mmHg 81%
    14:00 +26°C° 1.6 mm 2 mps 679 mmHg 85%
    15:00 +25°C° 1.6 mm 2 mps 678 mmHg 89%
    16:00 +24°C° 0.9 mm 2 mps 678 mmHg 91%
    17:00 +23°C° 0.9 mm 2 mps 678 mmHg 92%
    18:00 +23°C° 0.9 mm 2 mps 678 mmHg 94%
    19:00 +21°C° 1 mm 2 mps 679 mmHg 95%
    20:00 +20°C° 1 mm 2 mps 679 mmHg 96%
    21:00 +20°C° 1 mm 2 mps 680 mmHg 97%
    22:00 +20°C° 0.9 mm 2 mps 680 mmHg 97%
    23:00 +19°C° 0.9 mm 2 mps 680 mmHg 97%

    26 January, Friday

    Time Temperature Precipitation Wind Pressure Humidity
    00:00 +19°C° 0.9 mm 2 mps 680 mmHg 97%
    01:00 +19°C° 0.2 mm 2 mps 679 mmHg 98%
    02:00 +20°C° 0.2 mm 1 mps 679 mmHg 98%
    03:00 +20°C° 0.2 mm 1 mps 678 mmHg 98%
    04:00 +20°C° 0.1 mm 1 mps 678 mmHg 98%
    05:00 +20°C° 0.1 mm 1 mps 678 mmHg 98%
    06:00 +20°C° 0.1 mm 1 mps 678 mmHg 98%
    07:00 +20°C° 0.1 mm 1 mps 679 mmHg 97%
    08:00 +20°C° 0.1 mm 1 mps 679 mmHg 96%
    09:00 +21°C° 0.1 mm 1 mps 680 mmHg 95%
    10:00 +21°C° 0.1 mm 1 mps 680 mmHg 93%
    11:00 +22°C° 0.1 mm 1 mps 680 mmHg 90%
    12:00 +21°C° 0.1 mm 2 mps 680 mmHg 88%
    13:00 +23°C° 0.2 mm 2 mps 679 mmHg 86%
    14:00 +23°C° 0.2 mm 2 mps 679 mmHg 85%
    15:00 +23°C° 0.2 mm 2 mps 679 mmHg 84%
    16:00 +23°C° 0.1 mm 2 mps 679 mmHg 85%
    17:00 +21°C° 0.1 mm 2 mps 679 mmHg 86%
    18:00 +21°C° 0.1 mm 2 mps 679 mmHg 87%
    19:00 +20°C° 0.2 mm 2 mps 679 mmHg 89%
    20:00 +19°C° 0.2 mm 2 mps 679 mmHg 91%
    21:00 +19°C° 0.2 mm 2 mps 679 mmHg 94%
    22:00 +20°C° 0.2 mm 1 mps 679 mmHg 94%
    23:00 +20°C° 0.2 mm 1 mps 679 mmHg 95%

    27 January, Saturday

    Time Temperature Precipitation Wind Pressure Humidity
    00:00 +19°C° 0.2 mm 1 mps 679 mmHg 96%
    01:00 +19°C° 0.1 mm 1 mps 679 mmHg 96%
    02:00 +19°C° 0.1 mm 1 mps 679 mmHg 96%
    03:00 +19°C° 0.1 mm 1 mps 678 mmHg 96%
    04:00 +19°C° 0.1 mm 1 mps 678 mmHg 96%
    05:00 +19°C° 0.1 mm 1 mps 678 mmHg 96%
    06:00 +19°C° 0.1 mm 1 mps 678 mmHg 97%
    07:00 +20°C° 0 mm 1 mps 678 mmHg 93%
    08:00 +21°C° 0 mm 1 mps 679 mmHg 89%
    09:00 +22°C° 0 mm 1 mps 679 mmHg 85%
    10:00 +23°C° 0 mm 2 mps 679 mmHg 79%
    11:00 +24°C° 0 mm 2 mps 679 mmHg 74%
    12:00 +25°C° 0 mm 2 mps 679 mmHg 69%
    13:00 +25°C° 0.1 mm 2 mps 678 mmHg 70%
    14:00 +25°C° 0.1 mm 2 mps 678 mmHg 72%
    15:00 +25°C° 0.1 mm 2 mps 677 mmHg 73%
    16:00 +24°C° 0.1 mm 2 mps 677 mmHg 77%
    17:00 +23°C° 0.1 mm 2 mps 677 mmHg 81%
    18:00 +23°C° 0.1 mm 2 mps 677 mmHg 85%
    19:00 +21°C° 0 mm 2 mps 677 mmHg 88%
    20:00 +20°C° 0 mm 2 mps 677 mmHg 91%
    21:00 +20°C° 0 mm 1 mps 678 mmHg 94%
    22:00 +20°C° 0 mm 1 mps 678 mmHg 94%
    23:00 +20°C° 0 mm 1 mps 678 mmHg 95%
    Show more